Location: Newark
(48.6676°N, 6.1917°E)
Time: 12:04:29
(UTC+00:00)

N. Korean satellite - Pass Details

Date: 16 December 2019
Orbit: 454 x 508 km, 97.2° (Epoch: 17 January)

Event Time Altitude Azimuth Distance (km) Brightness Sun altitude
Rises 16:12:13 0° 156° (SSE) 2,594 10.3 -5.4°
Reaches altitude 10° 16:14:19 10° 152° (SSE) 1,709 9.4 -5.7°
Maximum altitude 16:17:56 57° 74° (ENE) 592 6.7 -6.2°
Drops below altitude 10° 16:21:32 10° 355° (N) 1,700 9.1 -6.7°
Sets 16:23:38 0° 351° (N) 2,578 10.0 -7.0°
